Time,TemperatureF,DewpointF,PressureIn,WindDirection,WindDirectionDegrees,WindSpeedMPH,WindSpeedGustMPH,Humidity,HourlyPrecipIn,Conditions,Clouds,dailyrainin,SoftwareType,DateUTC
2013-08-23 00:02:00,69.6,64.1,29.06,SSE,158,0.0,0.0,83,0.00,,,0.00,WUHU216HW,2013-08-23 05:02:00,
2013-08-23 00:07:00,69.6,64.1,29.06,SSE,158,0.0,0.0,83,0.00,,,0.00,WUHU216HW,2013-08-23 05:07:00,
2013-08-23 00:12:00,69.6,64.5,29.06,SSE,158,0.0,0.0,84,0.00,,,0.00,WUHU216HW,2013-08-23 05:12:00,
2013-08-23 00:17:00,69.4,64.3,29.06,SSE,158,0.0,0.0,84,0.00,,,0.00,WUHU216HW,2013-08-23 05:17:00,
2013-08-23 00:22:00,69.2,64.1,29.06,SSE,158,0.0,0.0,84,0.00,,,0.00,WUHU216HW,2013-08-23 05:22:00,
2013-08-23 00:27:00,69.0,64.0,29.06,SSE,158,0.0,0.0,84,0.00,,,0.00,WUHU216HW,2013-08-23 05:27:00,
2013-08-23 00:32:00,69.0,64.0,29.06,SSE,158,0.0,0.0,84,0.00,,,0.00,WUHU216HW,2013-08-23 05:32:00,
2013-08-23 00:37:00,68.7,63.6,29.06,SSE,158,0.0,0.0,84,0.00,,,0.00,WUHU216HW,2013-08-23 05:37:00,
2013-08-23 00:42:00,68.7,63.6,29.06,SSE,158,0.0,0.0,84,0.00,,,0.00,WUHU216HW,2013-08-23 05:42:00,
2013-08-23 00:47:00,68.7,63.6,29.06,SSE,158,0.0,0.0,84,0.00,,,0.00,WUHU216HW,2013-08-23 05:47:00,
2013-08-23 00:52:00,68.5,63.5,29.06,SSE,158,0.0,0.0,84,0.00,,,0.00,WUHU216HW,2013-08-23 05:52:00,
2013-08-23 00:58:00,68.3,63.3,29.06,SSE,158,0.0,0.0,84,0.00,,,0.00,WUHU216HW,2013-08-23 05:58:00,
2013-08-23 01:03:00,68.1,63.1,29.06,SSE,158,0.0,0.0,84,0.00,,,0.00,WUHU216HW,2013-08-23 06:03:00,
2013-08-23 01:08:00,68.0,62.9,29.06,SSE,158,0.0,0.0,84,0.00,,,0.00,WUHU216HW,2013-08-23 06:08:00,
2013-08-23 01:13:00,67.8,63.1,29.07,SSE,158,0.0,0.0,85,0.00,,,0.00,WUHU216HW,2013-08-23 06:13:00,
2013-08-23 01:18:00,67.8,63.1,29.06,SSE,158,0.0,0.0,85,0.00,,,0.00,WUHU216HW,2013-08-23 06:18:00,
2013-08-23 01:23:00,67.8,63.1,29.06,SSE,158,0.0,0.0,85,0.00,,,0.00,WUHU216HW,2013-08-23 06:23:00,
2013-08-23 01:28:00,67.6,62.9,29.06,SSE,158,0.0,0.0,85,0.00,,,0.00,WUHU216HW,2013-08-23 06:28:00,
2013-08-23 01:33:00,67.6,62.9,29.06,SSE,158,0.0,0.0,85,0.00,,,0.00,WUHU216HW,2013-08-23 06:33:00,
2013-08-23 01:38:00,67.6,62.9,29.06,SSE,158,0.0,0.0,85,0.00,,,0.00,WUHU216HW,2013-08-23 06:38:00,
2013-08-23 01:43:00,67.6,62.9,29.06,SSE,158,0.0,0.0,85,0.00,,,0.00,WUHU216HW,2013-08-23 06:43:00,
2013-08-23 01:48:00,67.6,62.9,29.06,SSE,158,0.0,0.0,85,0.00,,,0.00,WUHU216HW,2013-08-23 06:48:00,
2013-08-23 01:53:00,67.6,63.2,29.06,SSE,158,0.0,0.0,86,0.00,,,0.00,WUHU216HW,2013-08-23 06:53:00,
2013-08-23 01:58:00,67.6,63.2,29.06,SSE,158,0.0,0.0,86,0.00,,,0.00,WUHU216HW,2013-08-23 06:58:00,
2013-08-23 02:03:00,67.6,63.2,29.06,SSE,158,0.0,0.0,86,0.00,,,0.00,WUHU216HW,2013-08-23 07:03:00,
2013-08-23 02:08:00,67.6,63.2,29.06,SSE,158,0.0,0.0,86,0.00,,,0.00,WUHU216HW,2013-08-23 07:08:00,
2013-08-23 02:13:00,67.6,63.2,29.06,SSE,158,0.0,0.0,86,0.00,,,0.00,WUHU216HW,2013-08-23 07:13:00,
2013-08-23 02:18:00,67.6,63.2,29.06,SSE,158,0.0,0.0,86,0.00,,,0.00,WUHU216HW,2013-08-23 07:18:00,
2013-08-23 02:23:00,67.2,62.9,29.06,SSE,158,0.0,0.0,86,0.00,,,0.00,WUHU216HW,2013-08-23 07:23:00,
2013-08-23 02:29:00,67.2,62.9,29.06,SSE,158,0.0,0.0,86,0.00,,,0.00,WUHU216HW,2013-08-23 07:29:00,
2013-08-23 02:34:00,67.2,62.9,29.06,SSE,158,0.0,0.0,86,0.00,,,0.00,WUHU216HW,2013-08-23 07:34:00,
2013-08-23 02:39:00,67.2,62.9,29.06,SSE,158,0.0,0.0,86,0.00,,,0.00,WUHU216HW,2013-08-23 07:39:00,
2013-08-23 02:44:00,67.2,62.9,29.06,SSE,158,0.0,0.0,86,0.00,,,0.00,WUHU216HW,2013-08-23 07:44:00,
2013-08-23 02:49:00,67.2,62.9,29.06,SSE,158,0.0,0.0,86,0.00,,,0.00,WUHU216HW,2013-08-23 07:49:00,
2013-08-23 02:54:00,67.2,62.9,29.06,SSE,158,0.0,0.0,86,0.00,,,0.00,WUHU216HW,2013-08-23 07:54:00,
2013-08-23 02:59:00,67.2,62.9,29.06,SSE,158,0.0,0.0,86,0.00,,,0.00,WUHU216HW,2013-08-23 07:59:00,
2013-08-23 03:04:00,67.2,62.9,29.06,SSE,158,0.0,0.0,86,0.00,,,0.00,WUHU216HW,2013-08-23 08:04:00,
2013-08-23 03:09:00,67.1,62.7,29.07,SSE,158,0.0,0.0,86,0.00,,,0.00,WUHU216HW,2013-08-23 08:09:00,
2013-08-23 03:14:00,66.9,62.5,29.06,SSE,158,0.0,0.0,86,0.00,,,0.00,WUHU216HW,2013-08-23 08:14:00,
2013-08-23 03:19:00,66.9,62.5,29.06,SSE,158,0.0,0.0,86,0.00,,,0.00,WUHU216HW,2013-08-23 08:19:00,
2013-08-23 03:24:00,67.1,62.7,29.06,SSE,158,0.0,0.0,86,0.00,,,0.00,WUHU216HW,2013-08-23 08:24:00,
2013-08-23 03:29:00,67.1,63.0,29.06,SSE,158,0.0,0.0,87,0.00,,,0.00,WUHU216HW,2013-08-23 08:29:00,
2013-08-23 03:34:00,67.1,63.0,29.07,SSE,158,0.0,0.0,87,0.00,,,0.00,WUHU216HW,2013-08-23 08:34:00,
2013-08-23 03:39:00,67.1,63.0,29.06,SSE,158,0.0,0.0,87,0.00,,,0.00,WUHU216HW,2013-08-23 08:39:00,
2013-08-23 03:44:00,67.1,63.0,29.06,SSE,158,0.0,0.0,87,0.00,,,0.00,WUHU216HW,2013-08-23 08:44:00,
2013-08-23 03:49:00,67.1,63.0,29.06,SSE,158,0.0,0.0,87,0.00,,,0.00,WUHU216HW,2013-08-23 08:49:00,
2013-08-23 03:54:00,67.1,63.0,29.07,SSE,158,0.0,0.0,87,0.00,,,0.00,WUHU216HW,2013-08-23 08:54:00,
2013-08-23 03:59:00,67.1,63.0,29.07,SSE,158,0.0,0.0,87,0.00,,,0.00,WUHU216HW,2013-08-23 08:59:00,
2013-08-23 04:05:00,66.9,62.8,29.07,SSE,158,0.0,0.0,87,0.00,,,0.00,WUHU216HW,2013-08-23 09:05:00,
2013-08-23 04:10:00,66.9,62.8,29.07,SSE,158,0.0,0.0,87,0.00,,,0.00,WUHU216HW,2013-08-23 09:10:00,
2013-08-23 04:15:00,66.9,62.8,29.07,SSE,158,0.0,0.0,87,0.00,,,0.00,WUHU216HW,2013-08-23 09:15:00,
2013-08-23 04:20:00,66.9,62.8,29.06,SSE,158,0.0,0.0,87,0.00,,,0.00,WUHU216HW,2013-08-23 09:20:00,
2013-08-23 04:25:00,66.9,62.8,29.07,SSE,158,0.0,0.0,87,0.00,,,0.00,WUHU216HW,2013-08-23 09:25:00,
2013-08-23 04:30:00,66.9,62.8,29.07,SSE,158,0.0,0.0,87,0.00,,,0.00,WUHU216HW,2013-08-23 09:30:00,
2013-08-23 04:35:00,66.9,62.8,29.07,SSE,158,0.0,0.0,87,0.00,,,0.00,WUHU216HW,2013-08-23 09:35:00,
2013-08-23 04:40:00,66.7,62.7,29.06,SSE,158,0.0,0.0,87,0.00,,,0.00,WUHU216HW,2013-08-23 09:40:00,
2013-08-23 04:45:00,66.7,62.7,29.06,SSE,158,0.0,0.0,87,0.00,,,0.00,WUHU216HW,2013-08-23 09:45:00,
2013-08-23 04:50:00,66.7,62.7,29.06,SSE,158,0.0,0.0,87,0.00,,,0.00,WUHU216HW,2013-08-23 09:50:00,
2013-08-23 04:55:00,66.5,62.5,29.06,SSE,158,0.0,0.0,87,0.00,,,0.00,WUHU216HW,2013-08-23 09:55:00,
2013-08-23 05:00:00,66.3,62.3,29.06,SSE,158,0.0,0.0,87,0.00,,,0.00,WUHU216HW,2013-08-23 10:00:00,
2013-08-23 05:05:00,66.3,62.3,29.07,SSE,158,0.0,0.0,87,0.00,,,0.00,WUHU216HW,2013-08-23 10:05:00,
2013-08-23 05:10:00,66.2,62.1,29.07,SSE,158,0.0,0.0,87,0.00,,,0.00,WUHU216HW,2013-08-23 10:10:00,
2013-08-23 05:15:00,66.0,61.9,29.07,SSE,158,0.0,0.0,87,0.00,,,0.00,WUHU216HW,2013-08-23 10:15:00,
2013-08-23 05:20:00,66.0,61.9,29.07,SSE,158,0.0,0.0,87,0.00,,,0.00,WUHU216HW,2013-08-23 10:20:00,
2013-08-23 05:25:00,66.0,61.9,29.07,SSE,158,0.0,0.0,87,0.00,,,0.00,WUHU216HW,2013-08-23 10:25:00,
2013-08-23 05:30:00,66.0,61.9,29.07,SSE,158,0.0,0.0,87,0.00,,,0.00,WUHU216HW,2013-08-23 10:30:00,
2013-08-23 05:35:00,66.0,61.9,29.07,SSE,158,0.0,0.0,87,0.00,,,0.00,WUHU216HW,2013-08-23 10:35:00,
2013-08-23 05:40:00,66.0,61.9,29.07,SSE,158,0.0,0.0,87,0.00,,,0.00,WUHU216HW,2013-08-23 10:40:00,
2013-08-23 05:46:00,66.0,61.9,29.08,SSE,158,0.0,0.0,87,0.00,,,0.00,WUHU216HW,2013-08-23 10:46:00,
2013-08-23 05:51:00,66.0,61.9,29.08,SSE,158,0.0,0.0,87,0.00,,,0.00,WUHU216HW,2013-08-23 10:51:00,
2013-08-23 05:56:00,66.0,61.9,29.08,SSE,158,0.0,0.0,87,0.00,,,0.00,WUHU216HW,2013-08-23 10:56:00,
2013-08-23 06:01:00,66.0,62.3,29.08,SSE,158,0.0,0.0,88,0.00,,,0.00,WUHU216HW,2013-08-23 11:01:00,
2013-08-23 06:06:00,66.0,62.3,29.08,SSE,158,0.0,0.0,88,0.00,,,0.00,WUHU216HW,2013-08-23 11:06:00,
2013-08-23 06:11:00,66.0,62.3,29.08,SSE,158,0.0,0.0,88,0.00,,,0.00,WUHU216HW,2013-08-23 11:11:00,
2013-08-23 06:16:00,66.0,62.3,29.08,SSE,158,0.0,0.0,88,0.00,,,0.00,WUHU216HW,2013-08-23 11:16:00,
2013-08-23 06:21:00,66.0,62.3,29.08,SSE,158,0.0,0.0,88,0.00,,,0.00,WUHU216HW,2013-08-23 11:21:00,
2013-08-23 06:26:00,66.2,62.4,29.08,SSE,158,0.0,0.0,88,0.00,,,0.00,WUHU216HW,2013-08-23 11:26:00,
2013-08-23 06:31:00,66.2,62.4,29.08,SSE,158,0.0,0.0,88,0.00,,,0.00,WUHU216HW,2013-08-23 11:31:00,
2013-08-23 06:36:00,66.2,62.4,29.08,SSE,158,0.0,0.0,88,0.00,,,0.00,WUHU216HW,2013-08-23 11:36:00,
2013-08-23 06:41:00,66.3,62.6,29.08,SSE,158,0.0,0.0,88,0.00,,,0.00,WUHU216HW,2013-08-23 11:41:00,
2013-08-23 06:46:00,66.3,62.6,29.08,SSE,158,0.0,0.0,88,0.00,,,0.00,WUHU216HW,2013-08-23 11:46:00,
2013-08-23 06:51:00,66.3,62.6,29.08,SSE,158,0.0,0.0,88,0.00,,,0.00,WUHU216HW,2013-08-23 11:51:00,
2013-08-23 06:56:00,66.3,62.6,29.08,SSE,158,0.0,0.0,88,0.00,,,0.00,WUHU216HW,2013-08-23 11:56:00,
2013-08-23 07:01:00,66.5,62.8,29.08,SSE,158,0.0,0.0,88,0.00,,,0.00,WUHU216HW,2013-08-23 12:01:00,
2013-08-23 07:06:00,66.5,62.6,29.08,SSE,158,0.0,0.0,88,0.00,,,0.00,WUHU216HW,2013-08-23 12:06:00,
2013-08-23 07:11:00,66.5,62.8,29.08,SSE,158,0.0,0.0,88,0.00,,,0.00,WUHU216HW,2013-08-23 12:11:00,
2013-08-23 07:16:00,66.7,63.0,29.08,SSE,158,0.0,0.0,88,0.00,,,0.00,WUHU216HW,2013-08-23 12:16:00,
2013-08-23 07:22:00,66.9,63.2,29.09,SSE,158,0.0,0.0,88,0.00,,,0.00,WUHU216HW,2013-08-23 12:22:00,
2013-08-23 07:27:00,66.9,63.2,29.09,SSE,158,0.0,0.0,88,0.00,,,0.00,WUHU216HW,2013-08-23 12:27:00,
2013-08-23 07:32:00,67.2,63.5,29.09,SSE,158,0.0,0.0,88,0.00,,,0.00,WUHU216HW,2013-08-23 12:32:00,
2013-08-23 07:37:00,67.2,63.5,29.09,SSE,158,0.0,0.0,88,0.00,,,0.00,WUHU216HW,2013-08-23 12:37:00,
2013-08-23 07:42:00,67.6,63.9,29.09,SSE,158,0.0,0.0,88,0.00,,,0.00,WUHU216HW,2013-08-23 12:42:00,
2013-08-23 07:47:00,67.6,63.9,29.09,SSE,158,0.0,0.0,88,0.00,,,0.00,WUHU216HW,2013-08-23 12:47:00,
2013-08-23 07:52:00,67.8,64.1,29.09,SSE,158,0.0,0.0,88,0.00,,,0.00,WUHU216HW,2013-08-23 12:52:00,
2013-08-23 07:57:00,67.8,64.1,29.09,SSE,158,0.0,0.0,88,0.00,,,0.00,WUHU216HW,2013-08-23 12:57:00,
2013-08-23 08:02:00,67.8,64.1,29.09,SSE,158,0.0,0.0,88,0.00,,,0.00,WUHU216HW,2013-08-23 13:02:00,
2013-08-23 08:07:00,67.8,64.1,29.09,SSE,158,0.0,0.0,88,0.00,,,0.00,WUHU216HW,2013-08-23 13:07:00,
2013-08-23 08:12:00,67.8,64.1,29.09,SSE,158,0.0,0.0,88,0.00,,,0.00,WUHU216HW,2013-08-23 13:12:00,
2013-08-23 08:17:00,67.8,63.7,29.09,SSE,158,0.0,0.0,87,0.00,,,0.00,WUHU216HW,2013-08-23 13:17:00,
2013-08-23 08:22:00,67.8,63.7,29.09,SSE,158,0.0,0.0,87,0.00,,,0.00,WUHU216HW,2013-08-23 13:22:00,
2013-08-23 08:27:00,67.8,63.7,29.09,SSE,158,0.0,0.0,87,0.00,,,0.00,WUHU216HW,2013-08-23 13:27:00,
2013-08-23 08:32:00,67.8,63.7,29.09,SSE,158,0.0,0.0,87,0.00,,,0.00,WUHU216HW,2013-08-23 13:32:00,
2013-08-23 08:37:00,68.1,64.1,29.09,SSE,158,0.0,0.0,87,0.00,,,0.00,WUHU216HW,2013-08-23 13:37:00,
2013-08-23 08:42:00,68.1,64.1,29.09,SSE,158,0.0,0.0,87,0.00,,,0.00,WUHU216HW,2013-08-23 13:42:00,
2013-08-23 08:47:00,68.5,64.4,29.09,SSE,158,0.0,0.0,87,0.00,,,0.00,WUHU216HW,2013-08-23 13:47:00,
2013-08-23 08:52:00,68.7,64.6,29.09,SSE,158,0.0,0.0,87,0.00,,,0.00,WUHU216HW,2013-08-23 13:52:00,
2013-08-23 08:58:00,68.9,64.8,29.09,SSE,158,0.0,0.0,87,0.00,,,0.00,WUHU216HW,2013-08-23 13:58:00,
2013-08-23 09:03:00,69.0,65.3,29.09,SSE,158,0.0,0.0,88,0.00,,,0.00,WUHU216HW,2013-08-23 14:03:00,
2013-08-23 09:08:00,69.4,65.6,29.09,SSE,158,0.0,0.0,88,0.00,,,0.00,WUHU216HW,2013-08-23 14:08:00,
2013-08-23 09:13:00,69.9,66.2,29.09,SSE,158,0.0,0.0,88,0.00,,,0.00,WUHU216HW,2013-08-23 14:13:00,
2013-08-23 09:18:00,70.3,66.5,29.09,SSE,158,0.0,0.0,88,0.00,,,0.00,WUHU216HW,2013-08-23 14:18:00,
2013-08-23 09:23:00,70.5,66.4,29.09,SSE,158,0.0,0.0,87,0.00,,,0.00,WUHU216HW,2013-08-23 14:23:00,
2013-08-23 09:28:00,70.8,66.7,29.09,SSE,158,0.0,0.0,87,0.00,,,0.00,WUHU216HW,2013-08-23 14:28:00,
2013-08-23 09:33:00,71.2,67.1,29.09,SSE,158,0.0,0.0,87,0.00,,,0.00,WUHU216HW,2013-08-23 14:33:00,
2013-08-23 09:38:00,71.4,67.3,29.09,SSE,158,0.0,0.0,87,0.00,,,0.00,WUHU216HW,2013-08-23 14:38:00,
2013-08-23 09:43:00,71.6,67.5,29.09,South,180,0.0,0.0,87,0.00,,,0.00,WUHU216HW,2013-08-23 14:43:00,
2013-08-23 09:48:00,71.7,67.3,29.09,South,180,0.0,0.0,86,0.00,,,0.00,WUHU216HW,2013-08-23 14:48:00,
2013-08-23 09:53:00,71.9,67.5,29.09,South,180,0.0,0.0,86,0.00,,,0.00,WUHU216HW,2013-08-23 14:53:00,
2013-08-23 09:58:00,72.1,67.3,29.09,South,180,0.0,0.0,85,0.00,,,0.00,WUHU216HW,2013-08-23 14:58:00,
2013-08-23 10:03:00,72.1,67.3,29.09,South,180,0.0,0.0,85,0.00,,,0.00,WUHU216HW,2013-08-23 15:03:00,
2013-08-23 10:08:00,72.5,67.7,29.09,South,180,0.0,0.0,85,0.00,,,0.00,WUHU216HW,2013-08-23 15:08:00,
2013-08-23 10:13:00,73.0,68.2,29.10,South,180,0.0,0.0,85,0.00,,,0.00,WUHU216HW,2013-08-23 15:13:00,
2013-08-23 10:18:00,73.2,68.1,29.10,South,180,7.1,7.1,84,0.00,,,0.00,WUHU216HW,2013-08-23 15:18:00,
2013-08-23 10:23:00,73.2,68.1,29.10,South,180,0.0,7.1,84,0.00,,,0.00,WUHU216HW,2013-08-23 15:23:00,
2013-08-23 10:28:00,73.2,67.7,29.10,South,180,0.0,1.3,83,0.00,,,0.00,WUHU216HW,2013-08-23 15:28:00,
2013-08-23 10:34:00,73.7,68.3,29.09,South,180,0.0,0.0,83,0.00,,,0.00,WUHU216HW,2013-08-23 15:34:00,
2013-08-23 10:39:00,73.9,68.4,29.10,South,180,0.0,0.0,83,0.00,,,0.00,WUHU216HW,2013-08-23 15:39:00,
2013-08-23 10:44:00,74.1,68.6,29.10,South,180,0.0,0.0,83,0.00,,,0.00,WUHU216HW,2013-08-23 15:44:00,
2013-08-23 10:49:00,74.4,68.3,29.10,South,180,0.0,0.0,81,0.00,,,0.00,WUHU216HW,2013-08-23 15:49:00,
2013-08-23 10:54:00,74.4,68.3,29.10,South,180,0.0,0.0,81,0.00,,,0.00,WUHU216HW,2013-08-23 15:54:00,
2013-08-23 10:59:00,74.6,68.5,29.10,South,180,0.0,0.0,81,0.00,,,0.00,WUHU216HW,2013-08-23 15:59:00,
2013-08-23 11:04:00,74.8,68.7,29.10,South,180,2.6,2.6,81,0.00,,,0.00,WUHU216HW,2013-08-23 16:04:00,
2013-08-23 11:09:00,75.0,68.5,29.10,South,180,0.0,2.6,80,0.00,,,0.00,WUHU216HW,2013-08-23 16:09:00,
2013-08-23 11:14:00,75.0,68.5,29.10,South,180,0.0,2.6,80,0.00,,,0.00,WUHU216HW,2013-08-23 16:14:00,
2013-08-23 11:19:00,75.0,68.5,29.10,South,180,0.0,0.0,80,0.00,,,0.00,WUHU216HW,2013-08-23 16:19:00,
2013-08-23 11:24:00,75.3,68.4,29.10,SSE,158,0.0,0.0,79,0.00,,,0.00,WUHU216HW,2013-08-23 16:24:00,
2013-08-23 11:29:00,75.7,68.8,29.10,SSE,158,0.0,0.0,79,0.00,,,0.00,WUHU216HW,2013-08-23 16:29:00,
2013-08-23 11:34:00,75.7,68.4,29.10,South,180,0.0,0.0,78,0.00,,,0.00,WUHU216HW,2013-08-23 16:34:00,
2013-08-23 11:39:00,75.7,68.0,29.10,SSE,158,0.0,0.0,77,0.00,,,0.00,WUHU216HW,2013-08-23 16:39:00,
2013-08-23 11:44:00,75.7,68.0,29.10,South,180,0.0,0.0,77,0.00,,,0.00,WUHU216HW,2013-08-23 16:44:00,
2013-08-23 11:49:00,75.7,68.0,29.10,South,180,0.0,0.0,77,0.00,,,0.00,WUHU216HW,2013-08-23 16:49:00,
2013-08-23 11:54:00,75.5,67.8,29.10,South,180,0.0,0.0,77,0.00,,,0.00,WUHU216HW,2013-08-23 16:54:00,
2013-08-23 11:59:00,75.5,67.8,29.09,South,180,0.0,0.0,77,0.00,,,0.00,WUHU216HW,2013-08-23 16:59:00,
2013-08-23 12:05:00,75.7,67.6,29.09,South,180,0.0,0.0,76,0.00,,,0.00,WUHU216HW,2013-08-23 17:05:00,
2013-08-23 12:10:00,75.9,68.1,29.09,South,180,0.0,3.1,77,0.00,,,0.00,WUHU216HW,2013-08-23 17:10:00,
2013-08-23 12:15:00,76.1,67.9,29.08,South,180,0.0,3.1,76,0.00,,,0.00,WUHU216HW,2013-08-23 17:15:00,
2013-08-23 12:20:00,76.4,68.3,29.08,South,180,0.0,0.0,76,0.00,,,0.00,WUHU216HW,2013-08-23 17:20:00,
2013-08-23 12:25:00,76.6,68.4,29.08,South,180,0.0,0.0,76,0.00,,,0.00,WUHU216HW,2013-08-23 17:25:00,
2013-08-23 12:30:00,76.8,68.6,29.08,South,180,0.0,0.0,76,0.00,,,0.00,WUHU216HW,2013-08-23 17:30:00,
2013-08-23 12:35:00,76.8,68.2,29.08,South,180,0.0,0.0,75,0.00,,,0.00,WUHU216HW,2013-08-23 17:35:00,
2013-08-23 12:40:00,77.1,68.6,29.08,South,180,0.0,0.0,75,0.00,,,0.00,WUHU216HW,2013-08-23 17:40:00,
2013-08-23 12:45:00,77.3,68.3,29.08,South,180,0.0,0.0,74,0.00,,,0.00,WUHU216HW,2013-08-23 17:45:00,
2013-08-23 12:50:00,77.3,68.3,29.08,South,180,0.0,0.0,74,0.00,,,0.00,WUHU216HW,2013-08-23 17:50:00,
2013-08-23 12:55:00,77.1,68.2,29.08,South,180,0.0,0.0,74,0.00,,,0.00,WUHU216HW,2013-08-23 17:55:00,
2013-08-23 13:00:00,77.1,68.6,29.08,South,180,0.0,0.0,75,0.00,,,0.00,WUHU216HW,2013-08-23 18:00:00,
2013-08-23 13:05:00,77.1,68.6,29.08,SSW,203,0.0,0.0,75,0.00,,,0.00,WUHU216HW,2013-08-23 18:05:00,
2013-08-23 13:10:00,77.5,69.1,29.08,South,180,0.0,0.0,75,0.00,,,0.00,WUHU216HW,2013-08-23 18:10:00,
2013-08-23 13:16:00,78.4,69.8,29.08,South,180,0.0,0.0,75,0.00,,,0.00,WUHU216HW,2013-08-23 18:16:00,
2013-08-23 13:21:00,78.6,69.5,29.08,South,180,0.0,0.0,74,0.00,,,0.00,WUHU216HW,2013-08-23 18:21:00,
2013-08-23 13:26:00,78.6,69.1,29.08,South,180,0.0,0.0,73,0.00,,,0.00,WUHU216HW,2013-08-23 18:26:00,
2013-08-23 13:31:00,78.9,69.5,29.08,South,180,0.0,0.0,73,0.00,,,0.00,WUHU216HW,2013-08-23 18:31:00,
2013-08-23 13:36:00,79.5,69.6,29.08,South,180,2.0,2.0,72,0.00,,,0.00,WUHU216HW,2013-08-23 18:36:00,
2013-08-23 13:41:00,79.7,69.8,29.08,South,180,0.0,2.6,72,0.00,,,0.00,WUHU216HW,2013-08-23 18:41:00,
2013-08-23 13:46:00,79.8,69.6,29.08,South,180,0.0,5.1,71,0.00,,,0.00,WUHU216HW,2013-08-23 18:46:00,
2013-08-23 13:51:00,80.0,69.8,29.07,South,180,0.0,5.1,71,0.00,,,0.00,WUHU216HW,2013-08-23 18:51:00,
2013-08-23 13:56:00,80.0,69.8,29.08,South,180,0.0,0.0,71,0.00,,,0.00,WUHU216HW,2013-08-23 18:56:00,
2013-08-23 14:01:00,80.0,69.8,29.07,South,180,0.0,0.0,71,0.00,,,0.00,WUHU216HW,2013-08-23 19:01:00,
2013-08-23 14:06:00,79.8,69.2,29.07,South,180,0.0,0.0,70,0.00,,,0.00,WUHU216HW,2013-08-23 19:06:00,
2013-08-23 14:11:00,79.7,69.0,29.06,South,180,1.5,1.5,70,0.00,,,0.00,WUHU216HW,2013-08-23 19:11:00,
2013-08-23 14:17:00,79.7,69.0,29.07,South,180,0.0,1.5,70,0.00,,,0.00,WUHU216HW,2013-08-23 19:17:00,
2013-08-23 14:22:00,79.7,69.0,29.07,South,180,0.0,1.5,70,0.00,,,0.00,WUHU216HW,2013-08-23 19:22:00,
2013-08-23 14:27:00,79.7,69.0,29.07,South,180,0.0,0.0,70,0.00,,,0.00,WUHU216HW,2013-08-23 19:27:00,
2013-08-23 14:32:00,79.8,69.2,29.06,South,180,0.0,0.0,70,0.00,,,0.00,WUHU216HW,2013-08-23 19:32:00,
2013-08-23 14:37:00,79.8,69.2,29.06,South,180,0.0,0.0,70,0.00,,,0.00,WUHU216HW,2013-08-23 19:37:00,
2013-08-23 14:42:00,79.8,68.8,29.06,South,180,0.0,0.0,70,0.00,,,0.00,WUHU216HW,2013-08-23 19:42:00,
2013-08-23 14:47:00,79.8,69.2,29.06,South,180,0.0,0.0,70,0.00,,,0.00,WUHU216HW,2013-08-23 19:47:00,
2013-08-23 14:52:00,80.2,69.6,29.06,South,180,0.0,0.0,70,0.00,,,0.00,WUHU216HW,2013-08-23 19:52:00,
2013-08-23 14:57:00,80.7,69.9,29.06,South,180,0.0,0.0,70,0.00,,,0.00,WUHU216HW,2013-08-23 19:57:00,
2013-08-23 15:02:00,80.7,69.2,29.06,South,180,0.0,0.0,68,0.00,,,0.00,WUHU216HW,2013-08-23 20:02:00,
2013-08-23 15:07:00,80.7,69.2,29.05,South,180,0.0,0.0,68,0.00,,,0.00,WUHU216HW,2013-08-23 20:07:00,
2013-08-23 15:12:00,80.9,69.4,29.05,South,180,0.0,0.0,68,0.00,,,0.00,WUHU216HW,2013-08-23 20:12:00,
2013-08-23 15:17:00,80.9,69.4,29.05,South,180,3.1,3.1,68,0.00,,,0.00,WUHU216HW,2013-08-23 20:17:00,
2013-08-23 15:23:00,80.9,69.4,29.05,South,180,0.0,3.1,68,0.00,,,0.00,WUHU216HW,2013-08-23 20:23:00,
2013-08-23 15:28:00,81.1,69.5,29.05,South,180,0.0,0.8,68,0.00,,,0.00,WUHU216HW,2013-08-23 20:28:00,
2013-08-23 15:33:00,81.1,69.5,29.05,South,180,0.0,0.8,68,0.00,,,0.00,WUHU216HW,2013-08-23 20:33:00,
2013-08-23 15:38:00,81.3,69.7,29.05,South,180,0.0,0.0,68,0.00,,,0.00,WUHU216HW,2013-08-23 20:38:00,
2013-08-23 15:43:00,81.1,69.5,29.05,South,180,0.0,0.0,68,0.00,,,0.00,WUHU216HW,2013-08-23 20:43:00,
2013-08-23 15:48:00,80.7,68.7,29.05,South,180,0.0,0.0,67,0.00,,,0.00,WUHU216HW,2013-08-23 20:48:00,
2013-08-23 15:53:00,80.4,68.4,29.05,South,180,0.0,0.0,67,0.00,,,0.00,WUHU216HW,2013-08-23 20:53:00,
2013-08-23 15:58:00,80.2,68.7,29.04,South,180,0.0,0.0,68,0.00,,,0.00,WUHU216HW,2013-08-23 20:58:00,
2013-08-23 16:03:00,80.2,68.7,29.04,South,180,0.0,0.0,68,0.00,,,0.00,WUHU216HW,2013-08-23 21:03:00,
2013-08-23 16:08:00,80.4,69.3,29.04,SSW,203,0.0,0.0,69,0.00,,,0.00,WUHU216HW,2013-08-23 21:08:00,
2013-08-23 16:13:00,80.4,69.3,29.04,SSW,203,0.0,0.0,69,0.00,,,0.00,WUHU216HW,2013-08-23 21:13:00,
2013-08-23 16:18:00,80.7,69.6,29.04,SSW,203,0.0,0.0,69,0.00,,,0.00,WUHU216HW,2013-08-23 21:18:00,
2013-08-23 16:23:00,80.6,69.0,29.04,South,180,2.9,2.9,68,0.00,,,0.00,WUHU216HW,2013-08-23 21:23:00,
2013-08-23 16:28:00,80.7,69.2,29.04,South,180,0.0,2.9,68,0.00,,,0.00,WUHU216HW,2013-08-23 21:28:00,
2013-08-23 16:34:00,80.6,69.0,29.04,South,180,0.0,3.5,68,0.00,,,0.00,WUHU216HW,2013-08-23 21:34:00,
2013-08-23 16:39:00,80.6,69.0,29.04,SSE,158,0.0,3.5,68,0.00,,,0.00,WUHU216HW,2013-08-23 21:39:00,
2013-08-23 16:44:00,80.4,68.9,29.04,South,180,0.0,0.0,68,0.00,,,0.00,WUHU216HW,2013-08-23 21:44:00,
2013-08-23 16:49:00,80.2,69.1,29.04,South,180,0.0,0.0,69,0.00,,,0.00,WUHU216HW,2013-08-23 21:49:00,
2013-08-23 16:54:00,80.2,69.1,29.04,South,180,0.0,0.0,69,0.00,,,0.00,WUHU216HW,2013-08-23 21:54:00,
2013-08-23 16:59:00,80.2,69.1,29.04,South,180,0.0,0.0,69,0.00,,,0.00,WUHU216HW,2013-08-23 21:59:00,
2013-08-23 17:04:00,80.2,69.1,29.04,South,180,0.0,0.0,69,0.00,,,0.00,WUHU216HW,2013-08-23 22:04:00,
2013-08-23 17:09:00,80.2,69.1,29.04,South,180,0.0,0.0,69,0.00,,,0.00,WUHU216HW,2013-08-23 22:09:00,
2013-08-23 17:14:00,80.2,69.1,29.03,South,180,0.0,0.0,69,0.00,,,0.00,WUHU216HW,2013-08-23 22:14:00,
2013-08-23 17:19:00,80.0,68.9,29.03,South,180,0.0,0.0,69,0.00,,,0.00,WUHU216HW,2013-08-23 22:19:00,
2013-08-23 17:24:00,80.0,68.9,29.02,South,180,0.0,0.0,69,0.00,,,0.00,WUHU216HW,2013-08-23 22:24:00,
2013-08-23 17:29:00,79.8,68.8,29.03,South,180,0.0,0.0,69,0.00,,,0.00,WUHU216HW,2013-08-23 22:29:00,
2013-08-23 17:35:00,79.5,68.4,29.02,South,180,0.0,0.0,69,0.00,,,0.00,WUHU216HW,2013-08-23 22:35:00,
2013-08-23 17:40:00,79.5,68.4,29.02,South,180,0.0,0.0,69,0.00,,,0.00,WUHU216HW,2013-08-23 22:40:00,
2013-08-23 17:45:00,79.3,68.2,29.03,South,180,0.0,0.0,69,0.00,,,0.00,WUHU216HW,2013-08-23 22:45:00,
2013-08-23 17:50:00,79.1,68.0,29.03,South,180,0.0,0.0,69,0.00,,,0.00,WUHU216HW,2013-08-23 22:50:00,
2013-08-23 17:55:00,78.9,67.9,29.02,South,180,0.0,0.0,69,0.00,,,0.00,WUHU216HW,2013-08-23 22:55:00,
2013-08-23 18:00:00,78.6,68.0,29.02,South,180,0.0,0.0,70,0.00,,,0.00,WUHU216HW,2013-08-23 23:00:00,
2013-08-23 18:05:00,78.6,68.0,29.02,South,180,0.0,0.0,70,0.00,,,0.00,WUHU216HW,2013-08-23 23:05:00,
2013-08-23 18:10:00,78.6,68.3,29.03,South,180,0.0,0.0,71,0.00,,,0.00,WUHU216HW,2013-08-23 23:10:00,
2013-08-23 18:15:00,78.6,68.3,29.03,South,180,0.0,0.0,71,0.00,,,0.00,WUHU216HW,2013-08-23 23:15:00,
2013-08-23 18:20:00,78.4,68.2,29.03,South,180,0.0,0.0,71,0.00,,,0.00,WUHU216HW,2013-08-23 23:20:00,
2013-08-23 18:25:00,78.6,68.3,29.02,South,180,0.0,0.0,71,0.00,,,0.00,WUHU216HW,2013-08-23 23:25:00,
2013-08-23 18:30:00,78.6,68.3,29.03,South,180,0.0,0.0,71,0.00,,,0.00,WUHU216HW,2013-08-23 23:30:00,
2013-08-23 18:36:00,78.6,68.3,29.02,South,180,0.0,0.0,71,0.00,,,0.00,WUHU216HW,2013-08-23 23:36:00,
2013-08-23 18:41:00,78.6,68.3,29.03,South,180,0.0,0.0,71,0.00,,,0.00,WUHU216HW,2013-08-23 23:41:00,
2013-08-23 18:46:00,78.4,68.6,29.03,South,180,0.0,0.0,71,0.00,,,0.00,WUHU216HW,2013-08-23 23:46:00,
2013-08-23 18:51:00,78.2,68.4,29.03,South,180,0.0,0.0,72,0.00,,,0.00,WUHU216HW,2013-08-23 23:51:00,
2013-08-23 18:56:00,78.0,68.3,29.03,South,180,0.0,0.0,72,0.00,,,0.00,WUHU216HW,2013-08-23 23:56:00,
2013-08-23 19:01:00,78.0,68.3,29.03,South,180,0.0,0.0,72,0.00,,,0.00,WUHU216HW,2013-08-24 00:01:00,
2013-08-23 19:06:00,77.9,68.1,29.02,South,180,0.0,0.0,72,0.00,,,0.00,WUHU216HW,2013-08-24 00:06:00,
2013-08-23 19:11:00,77.7,67.9,29.02,South,180,0.0,0.0,72,0.00,,,0.00,WUHU216HW,2013-08-24 00:11:00,
2013-08-23 19:16:00,77.5,68.1,29.02,South,180,0.0,0.0,73,0.00,,,0.00,WUHU216HW,2013-08-24 00:16:00,
2013-08-23 19:21:00,77.3,68.0,29.02,South,180,0.0,0.0,73,0.00,,,0.00,WUHU216HW,2013-08-24 00:21:00,
2013-08-23 19:26:00,77.1,67.8,29.02,South,180,0.0,0.0,73,0.00,,,0.00,WUHU216HW,2013-08-24 00:26:00,
2013-08-23 19:31:00,77.1,68.2,29.02,South,180,0.0,0.0,74,0.00,,,0.00,WUHU216HW,2013-08-24 00:31:00,
2013-08-23 19:36:00,76.8,67.8,29.02,South,180,0.0,0.0,74,0.00,,,0.00,WUHU216HW,2013-08-24 00:36:00,
2013-08-23 19:41:00,76.8,67.8,29.02,South,180,0.0,0.0,74,0.00,,,0.00,WUHU216HW,2013-08-24 00:41:00,
2013-08-23 19:47:00,76.6,67.7,29.02,South,180,0.0,0.0,74,0.00,,,0.00,WUHU216HW,2013-08-24 00:47:00,
2013-08-23 19:52:00,76.2,67.7,29.02,South,180,0.0,0.0,75,0.00,,,0.00,WUHU216HW,2013-08-24 00:52:00,
2013-08-23 19:57:00,75.9,67.4,29.02,South,180,0.0,0.0,75,0.00,,,0.00,WUHU216HW,2013-08-24 00:57:00,
2013-08-23 20:02:00,75.9,67.4,29.02,South,180,0.0,0.0,75,0.00,,,0.00,WUHU216HW,2013-08-24 01:02:00,
2013-08-23 20:07:00,75.7,67.6,29.02,South,180,0.0,0.0,76,0.00,,,0.00,WUHU216HW,2013-08-24 01:07:00,
2013-08-23 20:12:00,75.3,67.2,29.02,South,180,0.0,0.0,76,0.00,,,0.00,WUHU216HW,2013-08-24 01:12:00,
2013-08-23 20:17:00,75.3,67.2,29.02,South,180,0.0,0.0,76,0.00,,,0.00,WUHU216HW,2013-08-24 01:17:00,
2013-08-23 20:22:00,75.2,67.1,29.02,South,180,0.0,0.0,76,0.00,,,0.00,WUHU216HW,2013-08-24 01:22:00,
2013-08-23 20:27:00,75.0,66.5,29.02,South,180,0.0,0.0,75,0.00,,,0.00,WUHU216HW,2013-08-24 01:27:00,
2013-08-23 20:32:00,74.8,66.3,29.02,South,180,0.0,0.0,75,0.00,,,0.00,WUHU216HW,2013-08-24 01:32:00,
2013-08-23 20:37:00,74.8,66.3,29.02,South,180,0.0,0.0,75,0.00,,,0.00,WUHU216HW,2013-08-24 01:37:00,
2013-08-23 20:43:00,74.8,66.3,29.02,South,180,0.0,0.0,75,0.00,,,0.00,WUHU216HW,2013-08-24 01:43:00,
2013-08-23 20:48:00,74.6,66.6,29.02,South,180,0.0,0.0,76,0.00,,,0.00,WUHU216HW,2013-08-24 01:48:00,
2013-08-23 20:53:00,74.4,66.0,29.02,South,180,0.0,0.0,75,0.00,,,0.00,WUHU216HW,2013-08-24 01:53:00,
2013-08-23 20:58:00,74.4,66.0,29.02,South,180,0.0,0.0,75,0.00,,,0.00,WUHU216HW,2013-08-24 01:58:00,
2013-08-23 21:03:00,74.3,66.2,29.03,South,180,0.0,0.0,76,0.00,,,0.00,WUHU216HW,2013-08-24 02:03:00,
2013-08-23 21:08:00,74.1,66.4,29.03,South,180,0.0,0.0,77,0.00,,,0.00,WUHU216HW,2013-08-24 02:08:00,
2013-08-23 21:13:00,74.1,66.4,29.03,South,180,0.0,0.0,77,0.00,,,0.00,WUHU216HW,2013-08-24 02:13:00,
2013-08-23 21:18:00,74.1,66.3,29.03,South,180,0.0,0.0,77,0.00,,,0.00,WUHU216HW,2013-08-24 02:18:00,
2013-08-23 21:23:00,73.9,65.9,29.04,South,180,0.0,0.0,76,0.00,,,0.00,WUHU216HW,2013-08-24 02:23:00,
2013-08-23 21:28:00,73.9,65.9,29.03,South,180,0.0,0.0,76,0.00,,,0.00,WUHU216HW,2013-08-24 02:28:00,
2013-08-23 21:34:00,73.7,65.3,29.03,South,180,0.0,0.0,75,0.00,,,0.00,WUHU216HW,2013-08-24 02:34:00,
2013-08-23 21:39:00,73.5,65.5,29.03,South,180,0.0,0.0,76,0.00,,,0.00,WUHU216HW,2013-08-24 02:39:00,
2013-08-23 21:44:00,73.5,65.5,29.03,South,180,0.0,0.0,76,0.00,,,0.00,WUHU216HW,2013-08-24 02:44:00,
2013-08-23 21:49:00,73.4,65.7,29.04,South,180,0.0,0.0,77,0.00,,,0.00,WUHU216HW,2013-08-24 02:49:00,
2013-08-23 21:54:00,73.2,65.6,29.04,South,180,0.0,0.0,77,0.00,,,0.00,WUHU216HW,2013-08-24 02:54:00,
2013-08-23 21:59:00,73.0,65.4,29.03,South,180,0.0,0.0,77,0.00,,,0.00,WUHU216HW,2013-08-24 02:59:00,
2013-08-23 22:04:00,73.0,65.8,29.04,South,180,0.0,0.0,78,0.00,,,0.00,WUHU216HW,2013-08-24 03:04:00,
2013-08-23 22:09:00,72.8,65.6,29.04,South,180,0.0,0.0,78,0.00,,,0.00,WUHU216HW,2013-08-24 03:09:00,
2013-08-23 22:14:00,72.6,65.4,29.04,South,180,0.0,0.0,78,0.00,,,0.00,WUHU216HW,2013-08-24 03:14:00,
2013-08-23 22:19:00,72.5,65.6,29.04,South,180,0.0,0.0,79,0.00,,,0.00,WUHU216HW,2013-08-24 03:19:00,
2013-08-23 22:24:00,72.5,65.6,29.04,South,180,0.0,0.0,79,0.00,,,0.00,WUHU216HW,2013-08-24 03:24:00,
2013-08-23 22:29:00,72.3,65.4,29.04,South,180,0.0,0.0,79,0.00,,,0.00,WUHU216HW,2013-08-24 03:29:00,
2013-08-23 22:35:00,72.3,65.4,29.04,South,180,0.0,0.0,79,0.00,,,0.00,WUHU216HW,2013-08-24 03:35:00,
2013-08-23 22:40:00,72.1,65.2,29.04,South,180,0.0,0.0,79,0.00,,,0.00,WUHU216HW,2013-08-24 03:40:00,
2013-08-23 22:45:00,71.9,65.1,29.04,South,180,0.0,0.0,79,0.00,,,0.00,WUHU216HW,2013-08-24 03:45:00,
2013-08-23 22:50:00,71.7,65.4,29.04,South,180,0.0,0.0,80,0.00,,,0.00,WUHU216HW,2013-08-24 03:50:00,
2013-08-23 22:55:00,71.7,65.3,29.05,South,180,0.0,0.0,80,0.00,,,0.00,WUHU216HW,2013-08-24 03:55:00,
2013-08-23 23:00:00,71.7,65.3,29.04,South,180,0.0,0.0,80,0.00,,,0.00,WUHU216HW,2013-08-24 04:00:00,
2013-08-23 23:01:00,71.7,65.3,29.04,South,180,0.0,0.0,80,0.00,,,0.00,WUHU216HW,2013-08-24 04:01:00,
2013-08-23 23:02:00,71.7,65.3,29.05,South,180,0.0,0.0,80,0.00,,,0.00,WUHU216HW,2013-08-24 04:02:00,
2013-08-23 23:07:00,71.6,65.1,29.04,South,180,0.0,0.0,80,0.00,,,0.00,WUHU216HW,2013-08-24 04:07:00,
2013-08-23 23:12:00,71.4,64.9,29.04,South,180,0.0,0.0,80,0.00,,,0.00,WUHU216HW,2013-08-24 04:12:00,
2013-08-23 23:17:00,71.4,64.9,29.04,South,180,0.0,0.0,80,0.00,,,0.00,WUHU216HW,2013-08-24 04:17:00,
2013-08-23 23:22:00,71.4,64.9,29.05,South,180,0.0,0.0,80,0.00,,,0.00,WUHU216HW,2013-08-24 04:22:00,
2013-08-23 23:27:00,71.2,64.7,29.04,SW,225,0.0,0.0,80,0.00,,,0.00,WUHU216HW,2013-08-24 04:27:00,
2013-08-23 23:32:00,71.2,64.7,29.04,SW,225,0.0,0.0,80,0.00,,,0.00,WUHU216HW,2013-08-24 04:32:00,
2013-08-23 23:38:00,71.2,64.7,29.04,South,180,0.0,0.0,80,0.00,,,0.00,WUHU216HW,2013-08-24 04:38:00,
2013-08-23 23:43:00,71.2,64.7,29.04,South,180,0.0,0.0,80,0.00,,,0.00,WUHU216HW,2013-08-24 04:43:00,
2013-08-23 23:48:00,71.2,64.7,29.04,South,180,0.0,0.0,80,0.00,,,0.00,WUHU216HW,2013-08-24 04:48:00,
2013-08-23 23:53:00,70.8,64.7,29.04,South,180,0.6,0.6,81,0.00,,,0.00,WUHU216HW,2013-08-24 04:53:00,
2013-08-23 23:58:00,70.8,64.7,29.04,South,180,0.0,0.6,81,0.00,,,0.00,WUHU216HW,2013-08-24 04:58:00,